KAWO Airport Information

Runway Information
Runway 11 Length 3500 ft width 75 ft
Elevation 129 ft Threshold 0 ft Heading 127
Runway 29 Length 3500 ft Width 75 ft
Elevation 124 ft Threshold 0 ft Heading 307
Runway 16 Length 5333 ft width 100 ft
Elevation 137 ft Threshold 0 ft Heading 179
Runway 34 Length 5333 ft Width 100 ft
Elevation 123 ft Threshold 0 ft Heading 359
Airport Frequencies
Type AWOS Name AWOS 3 Frequency 135.625 MHZ
Type CNTR Name SEATTLE CN Frequency 128.5 MHZ
Type UNIC Name CTAF/UNICO Frequency 122.7 MHZ
Airport Navaids
Airport Weather Information & NOTAM
ADDS - METARS form results

(0745 UTC 16 December 2018)
Data provider http://aviationweather.gov/metar/data/
 
METAR text: KAWO 160656Z AUTO 13010KT 10SM BKN060 09/00 A2986 RMK AO2 SLP117 T00940000
Conditions at: KAWO (ARLINGTON MUNI , WA, US) observed 0656 UTC 16 December 2018
Temperature: 9.4°C (49°F)
Dewpoint: 0.0°C (32°F) [RH = 52%]
Pressure (altimeter): 29.86 inches Hg (1011.3 mb)
[Sea-level pressure: 1011.7 mb]
Winds: from the SE (130 degrees) at 12 MPH (10 knots; 5.1 m/s)
Visibility: 10 or more miles (16+ km)
Ceiling: 6000 feet AGL
Clouds: broken clouds at 6000 feet AGL
Weather: automated observation with no human augmentation;
there may or may not be significant weather present at this time